This is the latest recevied weather packets stored in our database for station/object WW6Q. If no packets are shown the sender has not sent any weather packets the latest 10 day(s).
| Time | Temp. | Humidity | Pressure | Rain* | Wind** | Luminosity | Snow |
|---|---|---|---|---|---|---|---|
| 1788025385 | 26.67° C | 56% | 1021.4 hPa | 0 mm | - | 777 W/m² | - |
| 1788025080 | 26.11° C | 56% | 1021.4 hPa | 0 mm | - | 804 W/m² | - |
| 1788024780 | 25.56° C | 56% | 1021.5 hPa | 0 mm | - | 754 W/m² | - |
| 1788024476 | 25.56° C | 57% | 1021.4 hPa | 0 mm | - | 558 W/m² | - |
| 1788024175 | 25.56° C | 61% | 1021.7 hPa | 0 mm | - | 437 W/m² | - |
| 1788023871 | 25.56° C | 61% | 1021.6 hPa | 0 mm | - | 385 W/m² | - |
| 1788023566 | 25.56° C | 63% | 1021.7 hPa | 0 mm | - | 373 W/m² | - |
| 1788023262 | 25.56° C | 60% | 1021.8 hPa | 0 mm | - | 457 W/m² | - |
| 1788022956 | 26.11° C | 61% | 1021.7 hPa | 0 mm | - | 541 W/m² | - |
| 1788022654 | 25.56° C | 60% | 1021.7 hPa | 0 mm | - | 613 W/m² | - |
| 1788022353 | 25.56° C | 63% | 1021.9 hPa | 0 mm | - | 679 W/m² | - |
| 1788022053 | 25.56° C | 64% | 1021.8 hPa | 0 mm | - | 646 W/m² | - |
| 1788021747 | 25.56° C | 61% | 1022.1 hPa | 0 mm | - | 646 W/m² | - |
| 1788021446 | 25.56° C | 59% | 1022.1 hPa | 0 mm | - | 649 W/m² | - |
| 1788021140 | 25° C | 62% | 1022.4 hPa | 0 mm | - | 598 W/m² | - |
| 1788020836 | 25° C | 59% | 1022.2 hPa | 0 mm | - | 590 W/m² | - |
| 1788020544 | 25° C | 62% | 1022.3 hPa | 0 mm | - | 653 W/m² | - |
| 1788020232 | 25° C | 62% | 1022.3 hPa | 0 mm | - | 669 W/m² | - |
| 1788019928 | 25° C | 63% | 1022.4 hPa | 0 mm | - | 650 W/m² | - |
| 1788019623 | 25° C | 66% | 1022.2 hPa | 0 mm | - | 618 W/m² | - |
| 1788019322 | 24.44° C | 64% | 1022.4 hPa | 0 mm | - | 590 W/m² | - |
| 1788019020 | 24.44° C | 69% | 1022.1 hPa | 0 mm | - | 521 W/m² | - |
| 1788018715 | 24.44° C | 65% | 1022.4 hPa | 0 mm | - | 472 W/m² | - |
| 1788018414 | 24.44° C | 65% | 1022.3 hPa | 0 mm | - | 488 W/m² | - |
| 1788018109 | 24.44° C | 68% | 1022.3 hPa | 0 mm | - | 537 W/m² | - |
* Rain latest hour (hover to see other rain measurements)
** Current wind speed in m/s (hover to see current wind gust speed)